Карточка аэропорта URMM

Внимание!
Информация на этой странице в стадии наполнения.
Если вы не увидели какой-то информации, или заметили неточность - пожалуйста сообщите нам!
Спасибо!
Команда RU-STAFF
Название аэропортаМинеральные Воды
Название аэропорта (англ.)Mineralnyye Vody
Превышение1047 ft. (319.1 m.)
Координаты44°13.608', 43°4.9799999999999'
Высота перехода7000 ft
Эшелон переходаFL80 (QNH >= 1013); FL90 (QNH 977-1012); FL100 (QNH < 977)
Коды ответчика1050-1057
Зона ОрВДРостов-на-Дону РПИ (URRV)
Данные METARURMM 240800Z 31008MPS 9999 BKN041 27/17 Q1006 R29/090070 NOSIG RMK QFE726/0968
Проноз погоды (TAF)URMM 240500Z 2406/2506 28003G08MPS 9999 BKN030 TX30/2412Z TN17/2503Z TEMPO 2406/2409 30007G14MPS TEMPO 2409/2418 31007G14MPS 6000 -TSRAGR BKN016 BKN020CB
NOTAMshow/hide NOTAM
AWOS   TABLE

Информация о ВПП

ВПП Длина ВПП (м.) Покрытие Курс ВПП Частота ILS
123900Бетон115111.7
303900Бетон295109.3

Диспетчерские позиции

Позывной Наименование органа УВД Частота
URMM_APPМинводы-Подход119.3
URMM_R_APPМинводы-Круг120.7
URMM_TWRМинводы-Старт128.0
URMM_GNDМинводы-Руление121.9



Спутниковое изображение